Tracking 30743 objects as of 21-Jun-2025
HD Live streaming from Space Station
objects crossing your sky now

NOAA 16 DEB

Track NOAA 16 DEB now!
10-day predictions


NORAD ID: 41138
Int'l Code: 2000-055BV
Perigee: 809.7 km
Apogee: 824.5 km
Inclination: 98.7 °
Period: 101.1 minutes
Semi major axis: 7188 km
RCS: Unknown
Launch date: September 21, 2000
Source: United States (US)
Launch site: AIR FORCE WESTERN TEST RANGE (AFWTR)

Note: This is SATELLITE DEBRIS
Your satellite tracking list
Your tracking list is empty




NASA's NSSDC Master Catalog

Two Line Element Set (TLE):
1 41138U 00055BV  25171.17526107  .00001577  00000-0  69818-3 0  9997
2 41138  98.7191 253.8902 0010300   6.3725 353.7583 14.24563202492693
Source of the keplerian elements: AFSPC